Temp
16 16 17 17 17 18 18 19 19 20 21 22 22 22 23 23 23 23 23 22 23 23 25 25 25 26 27 26 26 26 30 29 28 28 27 26 26 22 20 19 17 16 16 16 16
16 16 16 17 18 18 18 19 19 20 21 22 22 22 23 23 23 23 22 22 23 24 24 25 26 27 27 27 27 30 30 27 26 26 26 23 24 25 23 20 18 17 16 16 17
15 16 16 17 17 18 18 19 19 20 21 21 22 22 23 23 24 22 22 22 23 23 24 24 25 26 27 27 26 27 27 26 24 23 25 23 21 22 22 19 17 17 16 16 16
15 16 16 16 17 18 18 19 20 20 21 21 22 23 23 23 25 22 22 22 23 23 24 25 26 27 27 27 25 25 24 23 23 23 23 21 19 17 17 16 16 16 16 16 16
15 16 16 16 17 18 18 19 20 20 21 22 22 22 22 23 22 22 22 22 23 23 23 24 25 26 27 25 26 25 23 22 21 20 20 19 18 17 16 16 16 16 15 15 15
15 15 16 16 17 17 18 19 20 20 21 22 22 23 23 24 21 22 22 22 23 23 23 23 23 24 24 24 26 24 23 23 21 21 20 19 18 17 16 16 16 16 15 15 14
15 15 16 16 17 17 18 19 20 20 21 22 22 22 23 21 21 21 22 22 23 23 23 22 22 24 24 24 23 24 25 24 21 21 20 20 18 17 16 16 16 15 15 14 14
15 15 16 16 17 17 18 19 20 20 21 22 22 22 21 21 21 22 22 22 22 22 22 22 22 23 24 22 24 25 25 25 22 21 20 22 16 16 16 16 16 15 15 15 14
15 15 16 16 17 18 18 19 20 20 21 21 22 22 22 21 21 21 22 22 22 22 22 22 22 23 23 26 25 25 24 23 23 20 21 22 17 16 16 16 16 15 15 14 13
15 15 16 16 17 18 18 19 20 20 21 21 22 22 21 20 20 21 21 22 21 22 23 23 24 26 26 26 25 24 23 22 21 19 20 18 17 16 16 16 15 15 14 13 12
14 15 15 16 17 18 18 19 20 20 20 19 19 20 20 20 20 20 21 21 22 23 25 23 26 24 23 23 23 23 23 21 19 18 18 17 17 17 16 16 15 14 13 12 12
14 15 16 16 17 17 18 18 20 20 20 19 19 19 20 20 21 20 21 22 23 24 23 25 23 22 22 22 22 22 21 20 18 18 18 18 17 17 15 14 13 13 12 11 11
14 15 16 16 16 17 18 19 20 20 22 19 19 20 19 20 20 20 20 21 23 23 24 24 22 20 22 22 22 21 21 20 19 18 19 18 17 16 14 13 12 12 11 10 9
14 14 16 16 16 17 17 18 19 19 23 20 21 20 19 19 20 19 19 19 21 22 22 21 20 21 22 21 21 21 20 20 19 19 20 19 21 18 16 14 13 12 11 10 8
14 14 15 16 16 15 17 18 18 19 21 20 20 19 19 20 19 19 19 20 21 20 21 19 20 21 21 20 20 19 18 20 20 21 19 19 19 21 17 15 13 12 10 9 8
13 14 14 15 16 16 17 18 18 21 20 20 20 21 21 20 19 19 19 18 18 21 21 20 19 20 20 19 19 18 19 19 19 20 19 22 20 20 18 16 13 11 10 8 7
13 14 14 15 15 16 17 17 20 20 19 19 20 21 21 19 19 20 19 19 21 21 20 20 20 19 18 20 19 19 20 21 20 20 21 18 19 17 13 12 11 10 9 7 6
13 13 14 15 15 16 16 19 20 19 21 20 20 20 20 20 18 18 19 20 18 19 20 21 19 19 18 18 19 19 20 20 19 21 21 18 20 17 12 10 9 9 8 7 6
12 13 14 15 15 16 16 18 20 20 21 20 21 21 19 19 20 19 18 18 17 17 20 19 19 17 16 17 17 19 19 18 18 16 17 21 15 12 11 11 10 9 8 7 6
12 13 14 15 15 15 18 17 19 19 20 22 21 20 20 20 20 20 19 16 16 15 15 17 18 16 16 16 17 18 18 18 19 17 18 20 18 19 11 12 10 9 7 6 5
12 13 13 14 15 15 17 18 17 16 18 20 20 19 20 19 20 19 18 15 15 15 15 16 17 17 16 16 18 18 18 16 17 17 18 18 19 13 12 10 10 8 6 5 4
13 14 12 14 15 14 17 17 15 17 16 18 19 19 20 19 19 18 18 16 12 14 17 14 16 17 17 14 14 16 16 17 17 17 16 16 16 11 10 9 8 7 5 3 3
12 10 11 13 16 16 14 15 15 17 17 18 18 18 18 18 17 16 15 11 11 14 15 15 16 17 16 15 15 15 15 15 15 15 16 16 17 10 8 8 7 6 4 3 2
14 11 11 12 12 16 15 15 15 14 15 15 16 17 17 17 16 15 14 11 10 12 10 12 15 16 17 16 15 15 15 15 15 15 16 16 16 11 10 9 7 5 4 3 1
13 11 11 12 13 14 16 16 15 16 14 15 16 17 18 16 16 15 14 12 11 9 11 14 15 14 15 14 13 14 15 15 14 15 14 16 14 14 11 9 6 3 3 2 -1
12 10 9 9 10 12 11 15 16 13 15 16 17 17 17 17 18 16 15 15 15 11 13 12 14 12 14 12 12 12 14 15 14 14 14 14 13 13 8 6 5 3 2 1 -1
11 12 13 5 9 13 13 14 15 13 10 13 16 16 16 14 13 13 12 13 14 14 13 13 13 12 14 12 12 13 14 14 13 12 13 13 13 10 8 6 5 3 1 -1 -2
Height
1546 1546 1546 1546 1547 1547 1546 1545 1544 1543 1542 1541 1541 1541 1541 1541 1540 1541 1536 1538 1534 1532 1530 1529 1528 1527 1526 1524 1524 1522 1517 1525 1532 1531 1538 1541 1541 1546 1552 1553 1553 1557 1563 1566 1566
1545 1545 1545 1546 1546 1546 1546 1545 1544 1543 1542 1541 1541 1541 1541 1541 1543 1539 1540 1537 1535 1532 1531 1529 1528 1527 1526 1527 1526 1520 1520 1533 1538 1540 1543 1547 1546 1546 1551 1556 1562 1565 1568 1569 1568
1544 1545 1545 1545 1545 1545 1545 1545 1544 1543 1542 1541 1540 1540 1541 1541 1542 1543 1540 1537 1535 1533 1531 1530 1528 1528 1527 1528 1530 1529 1532 1537 1543 1545 1543 1550 1552 1554 1553 1564 1571 1571 1573 1573 1572
1543 1544 1544 1544 1544 1544 1544 1544 1543 1542 1541 1540 1540 1540 1541 1542 1543 1545 1541 1538 1536 1534 1533 1530 1528 1527 1528 1530 1535 1538 1543 1545 1547 1547 1549 1555 1562 1563 1567 1575 1577 1577 1577 1577 1575
1541 1542 1543 1543 1543 1542 1543 1543 1543 1542 1541 1541 1540 1540 1542 1543 1545 1543 1541 1538 1536 1534 1531 1531 1530 1530 1530 1535 1536 1541 1548 1551 1554 1555 1558 1561 1564 1566 1577 1580 1581 1581 1580 1579 1577
1540 1541 1541 1542 1541 1541 1542 1542 1542 1542 1541 1540 1540 1540 1542 1543 1543 1542 1540 1538 1537 1536 1535 1533 1533 1533 1535 1538 1536 1545 1549 1553 1558 1560 1563 1562 1569 1570 1584 1584 1583 1583 1582 1581 1581
1538 1539 1540 1540 1540 1541 1541 1541 1541 1541 1541 1540 1540 1540 1542 1545 1543 1542 1541 1539 1537 1536 1537 1535 1535 1534 1537 1540 1545 1546 1544 1548 1560 1559 1560 1562 1574 1580 1585 1586 1585 1584 1584 1584 1584
1536 1537 1538 1538 1539 1540 1540 1540 1540 1540 1540 1540 1540 1541 1543 1543 1542 1542 1540 1539 1536 1536 1537 1536 1536 1537 1538 1543 1544 1542 1542 1542 1557 1557 1558 1556 1583 1586 1586 1586 1586 1586 1586 1587 1587
1533 1535 1536 1537 1538 1538 1539 1539 1540 1539 1540 1540 1540 1541 1544 1543 1543 1541 1539 1539 1537 1537 1537 1537 1538 1539 1540 1535 1538 1540 1545 1549 1551 1558 1557 1556 1579 1586 1587 1587 1587 1588 1589 1589 1589
1531 1534 1535 1535 1536 1537 1538 1538 1539 1539 1540 1540 1540 1543 1545 1545 1543 1541 1539 1539 1540 1540 1540 1539 1538 1534 1535 1532 1539 1545 1552 1554 1559 1567 1561 1567 1579 1585 1587 1588 1589 1589 1591 1591 1590
1528 1532 1533 1534 1534 1535 1537 1539 1543 1543 1540 1542 1543 1543 1544 1545 1543 1542 1540 1541 1541 1541 1536 1540 1534 1542 1547 1545 1546 1548 1550 1560 1567 1573 1573 1576 1579 1584 1587 1589 1589 1591 1592 1592 1591
1526 1529 1531 1531 1533 1534 1535 1537 1537 1539 1543 1543 1543 1543 1544 1544 1546 1544 1542 1543 1540 1539 1541 1539 1548 1552 1553 1552 1551 1552 1557 1565 1571 1572 1573 1577 1581 1584 1589 1592 1592 1592 1593 1593 1592
1524 1526 1530 1531 1532 1533 1534 1535 1536 1537 1540 1546 1545 1545 1546 1548 1548 1547 1545 1545 1543 1543 1542 1543 1554 1557 1553 1553 1554 1557 1558 1564 1568 1573 1572 1575 1580 1583 1591 1592 1593 1593 1594 1593 1591
1522 1524 1528 1530 1534 1532 1533 1533 1535 1536 1535 1547 1546 1548 1548 1547 1549 1548 1546 1549 1549 1550 1550 1553 1558 1556 1554 1558 1557 1557 1564 1563 1567 1566 1564 1567 1555 1571 1581 1588 1591 1592 1593 1593 1592
1519 1522 1525 1529 1529 1531 1532 1533 1535 1538 1547 1547 1546 1548 1548 1548 1550 1551 1549 1550 1550 1554 1554 1562 1558 1558 1557 1562 1561 1564 1566 1562 1561 1558 1564 1566 1568 1545 1570 1582 1589 1593 1594 1594 1592
1517 1520 1523 1526 1528 1529 1530 1532 1537 1540 1545 1544 1544 1545 1546 1548 1550 1551 1552 1552 1556 1554 1554 1559 1562 1562 1562 1565 1565 1566 1565 1566 1563 1560 1565 1545 1557 1550 1563 1573 1588 1593 1593 1594 1592
1514 1518 1522 1523 1526 1528 1531 1534 1537 1540 1539 1543 1541 1543 1544 1549 1552 1553 1555 1556 1553 1557 1557 1559 1562 1566 1567 1563 1565 1563 1560 1554 1559 1561 1550 1558 1561 1565 1580 1587 1593 1594 1595 1594 1593
1512 1516 1519 1521 1524 1528 1531 1534 1534 1531 1528 1536 1539 1543 1545 1549 1555 1556 1555 1555 1562 1558 1556 1557 1566 1566 1569 1568 1567 1565 1562 1559 1565 1553 1546 1560 1549 1562 1584 1591 1594 1595 1595 1594 1592
1511 1514 1517 1519 1523 1527 1532 1532 1520 1522 1525 1531 1537 1539 1547 1548 1550 1554 1559 1560 1567 1567 1561 1562 1565 1570 1572 1571 1572 1565 1563 1567 1566 1571 1566 1540 1565 1579 1586 1589 1591 1592 1592 1592 1590
1508 1511 1515 1518 1522 1526 1529 1526 1524 1526 1525 1525 1529 1535 1541 1545 1547 1550 1557 1568 1569 1571 1570 1570 1568 1572 1572 1573 1571 1568 1570 1567 1562 1570 1563 1542 1550 1541 1580 1582 1589 1589 1590 1589 1589
1508 1510 1514 1516 1522 1526 1524 1523 1526 1529 1529 1528 1530 1536 1537 1543 1543 1550 1558 1570 1570 1571 1570 1569 1569 1572 1573 1571 1567 1568 1565 1570 1567 1566 1562 1555 1542 1570 1575 1584 1587 1588 1589 1589 1588
1504 1507 1510 1516 1521 1523 1522 1523 1528 1529 1530 1530 1532 1533 1535 1541 1547 1551 1557 1562 1571 1571 1568 1573 1570 1567 1570 1577 1577 1573 1569 1568 1568 1562 1567 1568 1558 1579 1582 1585 1587 1589 1590 1590 1588
1498 1505 1510 1513 1515 1518 1524 1526 1528 1528 1529 1531 1533 1534 1539 1542 1551 1555 1561 1572 1572 1571 1570 1572 1569 1565 1569 1575 1575 1571 1571 1571 1572 1572 1564 1566 1553 1580 1584 1585 1588 1589 1589 1588 1588
1496 1505 1512 1514 1513 1513 1518 1523 1528 1531 1532 1534 1536 1537 1539 1545 1548 1557 1563 1571 1573 1573 1574 1573 1569 1566 1563 1568 1570 1572 1571 1570 1569 1567 1556 1555 1554 1574 1579 1581 1585 1587 1587 1587 1587
1490 1497 1499 1508 1513 1513 1512 1520 1526 1529 1532 1534 1536 1536 1536 1547 1549 1554 1561 1569 1573 1574 1574 1572 1568 1571 1567 1571 1574 1571 1565 1565 1568 1563 1567 1554 1560 1562 1575 1580 1585 1587 1586 1587 1588
1486 1490 1496 1503 1509 1513 1517 1521 1523 1529 1530 1533 1533 1537 1538 1542 1541 1550 1555 1560 1559 1571 1570 1573 1567 1574 1568 1574 1574 1572 1562 1561 1562 1562 1562 1561 1560 1562 1577 1582 1584 1585 1586 1587 1587
1482 1486 1492 1508 1510 1512 1518 1520 1522 1524 1535 1534 1534 1537 1541 1547 1549 1552 1558 1559 1561 1564 1567 1570 1571 1573 1565 1573 1572 1565 1553 1554 1560 1562 1562 1559 1557 1569 1577 1579 1581 1583 1585 1585 1586
Wind_Speed
7 5 4 2 2 2 3 3 4 4 4 5 6 9 9 7 10 11 14 14 13 13 10 6 2 2 6 7 6 2 3 4 4 5 10 12 16 19 20 28 34 21 22 16 15
9 7 5 3 1 2 3 3 4 4 3 3 6 13 13 8 9 18 13 12 12 14 11 9 4 3 5 4 5 4 2 7 8 8 9 16 13 9 17 25 27 26 23 21 21
11 9 6 4 3 2 2 3 4 4 3 2 4 10 12 5 2 10 12 10 12 13 11 10 4 4 8 7 8 9 10 7 10 7 9 21 27 11 17 20 22 23 22 23 24
13 10 8 6 4 3 2 2 4 4 2 2 4 6 11 2 1 7 11 10 12 11 10 10 6 3 5 8 6 16 16 19 20 13 19 25 28 33 30 23 21 23 23 23 26
14 12 9 8 6 4 2 2 2 3 1 2 4 7 8 7 5 5 10 10 12 11 13 8 12 6 6 9 16 17 21 26 24 27 27 28 29 25 25 21 21 22 23 24 26
15 13 10 9 7 5 3 2 2 2 1 2 4 7 5 6 2 6 10 9 10 9 10 12 7 9 10 8 7 20 21 18 21 20 20 23 18 12 17 17 19 20 22 23 24
16 13 11 10 8 6 4 3 2 1 1 3 5 7 9 6 4 7 10 7 7 7 6 9 6 2 6 12 13 12 14 19 14 2 8 19 20 16 15 14 17 19 20 21 21
17 14 12 10 9 6 5 3 2 0 1 4 7 5 5 5 5 6 6 5 4 3 6 7 7 8 5 11 9 8 2 7 15 8 5 15 10 11 10 12 16 16 17 18 20
18 15 12 10 9 7 5 4 1 1 3 5 5 5 5 3 6 8 8 5 4 6 7 7 6 5 6 9 8 4 4 2 4 19 4 4 15 12 10 11 14 15 16 17 19
18 16 13 11 9 7 5 4 3 3 5 7 7 6 4 2 7 9 5 4 4 7 5 3 3 5 4 4 1 3 5 5 8 13 16 18 18 13 10 11 13 14 15 18 20
18 16 14 11 9 7 5 5 4 3 3 5 4 7 5 5 11 9 4 4 4 3 4 2 2 8 8 8 7 4 5 10 12 7 11 14 15 12 11 9 10 13 15 17 19
18 17 14 11 9 7 7 6 6 11 11 9 9 9 8 5 4 12 7 2 1 5 6 5 8 7 5 4 7 7 8 9 6 4 9 13 13 10 9 10 11 12 14 16 19
19 16 15 11 9 7 9 13 12 14 5 4 5 5 5 7 7 12 9 6 9 8 3 3 7 2 3 5 6 6 2 8 7 7 9 12 9 10 9 10 10 11 13 17 22
20 16 15 11 7 8 8 13 19 8 4 5 3 1 1 3 4 11 8 3 3 7 7 7 3 2 3 5 5 4 3 4 13 11 3 17 1 14 12 7 7 10 15 18 21
20 16 15 14 6 10 10 13 15 3 6 7 5 3 4 2 4 8 11 6 5 4 4 4 3 2 0 4 4 6 1 6 11 10 4 16 7 9 14 9 3 9 14 18 20
20 17 15 14 10 10 11 13 12 5 5 6 5 6 6 7 4 3 5 8 4 5 9 6 4 4 4 2 6 3 3 4 6 7 6 6 10 9 10 3 2 8 14 17 19
21 18 15 14 11 10 12 14 6 5 3 8 7 7 6 4 5 4 6 8 2 3 3 5 3 4 4 3 3 4 6 4 6 6 3 4 6 7 9 7 6 9 13 15 16
21 18 16 13 11 11 15 4 7 4 8 5 8 10 4 3 4 3 4 5 8 3 3 4 5 2 7 4 4 3 5 4 5 4 5 5 5 7 9 7 5 7 10 12 15
21 19 15 13 12 13 8 6 2 7 10 14 13 7 4 4 3 3 4 4 4 6 2 1 3 3 6 3 3 3 2 3 3 1 4 2 5 8 9 6 3 7 11 13 14
23 19 16 13 11 14 5 3 1 2 9 16 7 3 6 8 6 3 3 2 4 2 2 3 2 1 2 2 5 4 3 3 3 4 5 3 6 3 10 6 2 8 11 13 14
23 11 14 14 13 7 6 3 3 3 3 5 5 7 7 6 5 4 5 4 1 4 2 1 3 4 3 1 2 3 3 1 4 4 4 7 2 3 9 4 4 8 11 13 13
21 5 16 19 6 2 4 4 4 7 2 3 4 7 8 5 5 4 4 3 2 2 1 2 1 2 1 2 3 4 3 5 4 3 3 5 3 6 6 4 5 7 8 9 10
14 7 14 21 6 5 5 5 2 5 3 3 3 1 3 6 4 4 4 3 4 3 3 4 2 3 5 4 3 5 3 4 3 3 11 8 1 9 6 1 3 5 6 6 8
14 4 4 7 3 8 7 7 5 3 4 5 5 5 7 5 5 6 6 3 3 3 4 2 2 5 6 5 2 5 7 9 10 6 10 12 12 11 8 4 0 2 3 4 5
9 4 7 6 5 6 5 9 8 6 3 2 3 3 7 5 5 6 5 6 5 7 3 2 4 3 6 5 6 11 14 12 15 15 9 9 9 5 4 2 0 1 2 2 6
11 8 5 6 11 8 1 7 10 5 4 4 7 9 4 5 3 8 8 6 4 7 5 2 1 1 6 3 6 12 17 15 15 16 17 18 18 2 6 4 1 0 0 3 4
8 14 9 3 5 6 5 8 9 13 3 2 10 8 7 7 9 10 6 6 6 5 7 5 4 2 4 2 6 12 13 11 6 6 9 9 4 10 7 3 2 2 1 0 2
Wind_Direction
214 217 201 229 304 341 2 19 25 37 55 85 113 132 130 112 66 62 43 21 12 16 22 20 71 113 56 56 44 337 214 111 76 26 52 34 88 74 76 71 62 72 72 75 71
215 223 222 206 257 315 344 1 10 22 35 76 122 151 150 116 71 53 37 29 22 21 23 35 68 67 79 46 32 350 29 58 33 44 79 60 84 110 87 69 67 73 73 74 71
221 224 231 223 209 267 320 345 358 9 24 67 130 173 176 162 37 22 20 24 19 19 9 17 88 89 76 62 22 33 65 67 24 77 117 88 65 78 96 68 68 77 77 71 67
226 227 230 234 228 224 279 332 346 356 18 81 138 157 178 179 150 357 30 26 21 22 23 34 35 72 70 69 73 91 66 77 75 90 95 89 88 74 78 86 86 83 78 71 65
225 229 233 233 232 229 238 288 333 350 16 112 151 144 146 112 85 43 29 19 23 28 35 40 50 71 86 102 91 102 97 95 84 83 89 91 78 87 82 89 89 84 74 67 60
230 231 233 239 238 237 242 256 299 334 92 129 152 164 150 115 84 16 12 8 17 34 44 52 64 84 84 90 72 113 109 99 86 92 93 87 73 101 92 98 89 78 70 62 56
233 232 237 239 242 240 241 252 277 310 143 140 129 146 111 99 46 8 357 2 11 50 60 59 56 88 117 105 124 137 134 116 60 158 155 101 67 91 106 102 88 76 67 59 50
231 235 236 242 245 243 237 245 271 292 158 153 154 129 97 101 46 355 18 20 7 45 107 86 81 82 75 122 133 161 196 221 57 24 12 198 111 112 114 105 86 75 65 55 44
224 235 236 239 242 245 237 229 227 140 139 155 144 129 115 71 5 354 2 34 65 110 115 97 80 86 146 167 158 181 118 350 104 22 136 144 129 125 124 102 86 75 62 49 38
214 232 235 237 237 237 228 204 153 138 128 110 128 133 84 22 6 359 347 94 113 120 107 92 104 137 117 235 295 104 152 82 51 50 86 110 121 128 119 101 87 72 54 44 37
207 225 233 233 235 229 207 162 164 130 93 78 80 90 70 88 38 12 117 95 111 129 106 48 172 66 58 47 71 96 98 106 115 93 83 114 124 125 111 103 91 63 54 46 35
207 214 230 229 231 227 200 194 203 147 101 80 84 82 74 96 68 33 57 100 141 121 140 159 92 75 75 76 104 120 115 109 79 115 134 141 131 125 110 91 80 69 53 35 20
208 207 222 225 221 225 209 205 167 139 109 71 78 78 72 73 53 13 41 67 73 96 95 71 98 86 73 99 122 97 70 178 143 123 146 152 158 154 126 112 94 69 45 29 20
206 205 211 217 215 204 195 186 169 148 166 142 150 104 42 140 69 29 38 48 71 98 78 76 83 117 132 90 316 185 57 197 162 180 224 213 258 191 168 134 89 54 32 21 13
202 205 202 203 206 190 186 175 175 169 201 144 124 130 79 108 126 26 34 57 81 91 256 91 121 123 220 41 345 60 200 203 194 226 255 192 255 123 165 179 81 40 25 17 10
198 201 199 198 211 201 174 158 147 210 203 145 146 156 131 70 64 73 62 68 102 70 69 95 77 31 35 68 40 129 143 149 206 230 244 193 235 156 182 196 119 28 20 11 6
195 196 195 189 199 188 166 147 171 228 158 154 154 155 118 89 77 47 63 61 41 178 148 147 83 94 20 241 207 227 247 230 213 203 319 133 235 48 118 102 61 22 12 7 5
191 190 191 187 186 175 162 194 215 118 162 130 138 132 114 144 86 94 120 100 57 351 149 217 170 354 8 21 347 344 305 317 291 296 335 172 259 106 131 121 73 30 12 7 8
186 180 182 182 178 169 171 202 223 173 148 148 143 144 120 126 118 137 57 79 46 13 354 217 120 117 44 4 295 116 251 357 283 226 261 225 124 152 159 149 56 19 10 9 8
180 168 172 175 172 164 201 214 145 121 136 160 137 208 145 151 155 161 152 90 113 43 351 96 202 67 82 260 75 319 98 240 186 280 276 207 275 30 183 189 3 13 7 5 3
175 151 169 165 156 170 202 164 147 139 136 184 140 133 139 142 145 128 123 133 172 107 91 46 275 133 201 293 339 180 209 315 301 287 293 303 360 59 128 132 7 7 6 1 0
171 150 163 159 153 194 169 132 133 147 90 107 100 100 145 139 127 126 136 58 143 154 149 75 306 242 19 79 286 276 283 258 267 194 249 294 292 123 133 116 11 6 4 2 7
154 109 161 167 176 162 133 119 102 144 117 133 115 90 141 133 118 119 119 95 140 167 171 167 178 256 180 186 191 247 210 246 252 271 262 269 18 167 164 161 17 355 0 12 20
159 120 134 181 166 152 148 139 121 66 86 82 110 113 127 125 48 137 133 141 149 152 150 186 200 260 285 357 344 244 231 231 233 263 278 248 283 187 208 245 306 342 11 32 36
163 144 158 162 179 158 133 148 147 144 95 139 105 210 149 131 129 133 145 148 158 159 153 237 253 236 268 269 253 268 267 243 240 251 263 282 290 326 219 222 146 23 26 34 19
154 139 99 93 130 125 93 179 164 133 149 172 163 147 139 142 182 178 163 191 178 173 181 169 216 252 262 219 243 261 264 256 255 256 263 274 276 319 151 151 188 30 67 20 4
164 157 164 154 127 141 177 158 172 131 62 82 157 140 150 92 87 82 92 108 137 170 173 177 183 200 271 216 287 264 260 240 232 238 244 263 353 142 171 206 238 205 170 134 335